AirNav   TITAN Aviation Fuels
 
 1004 users online  

8TN3 Raby Airpark
Farragut, Tennessee, USA

GOING TO FARRAGUT?


FAA INFORMATION EFFECTIVE 01 DECEMBER 2022

Location

FAA Identifier: 8TN3
Lat/Long: 35-50-30.0000N 084-10-52.0000W
35-50.500000N 084-10.866667W
35.8416667,-84.1811111
(estimated)
Elevation: 830 ft. / 253 m (estimated)
Variation: 04W (1995)
From city: 2 miles NE of FARRAGUT, TN
Time zone: UTC -5 (UTC -4 during Daylight Saving Time)
Zip code: 37922

Airport Operations

Airport use: Private use. Permission required prior to landing
Activation date: 06/1998
Control tower: no
ARTCC: ATLANTA CENTER
FSS: NASHVILLE FLIGHT SERVICE STATION
Attendance: UNATNDD
Segmented circle: no

Airport Communications

WX ASOS at TYS (9 nm E): PHONE 865-981-4053
WX AWOS-3 at DKX (17 nm NE): 125.375 (865-579-6151)

Nearby radio navigation aids

VOR radial/distance  VOR name  Freq  Var
VXVr258/14.4VOLUNTEER VORTAC116.4003W
HCHr087/39.0HINCH MOUNTAIN VOR/DME117.6002W

 
NDB name  Hdg/Dist  Freq  Var  ID
JEFFERSON249/37.934604WJXT .--- -..- -

Airport Services

Runway Information

Runway 5/23

Dimensions: 1300 x 50 ft. / 396 x 15 m
Surface: turf
RUNWAY 5  RUNWAY 23
Traffic pattern: leftleft
Obstructions: 40 ft. trees40 ft. trees

Airport Ownership and Management from official FAA records

Ownership: Privately-owned
Owner: JASON RABY
1313 CHOTO RD.
KNOXVILLE, TN 37922
Phone 865-966-3108
Manager: PAUL ROBERTSON
12600 VERITAS WAY
KNOXVILLE, TN 37922
Phone 865-671-0712

Airport Operational Statistics

Aircraft based on the field: 2
Single engine airplanes: 1
Helicopters: 1
    

Additional Remarks

FOR CD CTC ATLANTA ARTCC AT 770-210-7692.

Instrument Procedures

There are no published instrument procedures at 8TN3.

Some nearby airports with instrument procedures:

KTYS - Mc Ghee Tyson Airport (9 nm E)
KDKX - Knoxville Downtown Island Airport (17 nm NE)
KMNV - Monroe County Airport (20 nm SW)
KRKW - Rockwood Municipal Airport (25 nm W)
KJAU - Colonel Tommy C Stiner Airfield (30 nm N)
 
Loc | Ops | Rwys | IFR | FBO | Links
Com | Nav | Svcs | Stats | Notes
Area around 8TN3 (Raby Airpark)
 
Road maps at: MapQuest Bing Google
 
Aerial photo
No photo
 
Sectional chart

 
Airport distance calculator
Flying to Raby Airpark? Find the distance to fly.

From to 8TN3

Sunrise and sunset
Times for 09-Dec-2022
 Local
(UTC-5)
 Zulu
(UTC)
Morning civil twilight07:0812:08
Sunrise07:3612:36
Sunset17:2222:22
Evening civil twilight17:5022:50

Current date and time
Zulu (UTC)  10-Dec-2022 03:42:06
Local (UTC-5)  09-Dec-2022 22:42:06
 
METAR
KTYS 
10nm E 
100253Z 25003KT 1/8SM FG VV002 14/14 A3012 RMK AO2 SLP194 T01390139 52010 RVRNO $
KOQT 
11nm N 
100311Z AUTO 00000KT 1/4SM FG VV002 14/13 A3013 RMK AO2 T01390133
KDKX 
17nm NE 
100315Z AUTO 00000KT 1/4SM FG OVC002 14/14 A3012 RMK A01
TAF
KTYS 
10nm E 
092148Z 0922/1018 VRB03KT 2SM -SHRA FEW005 OVC010 TEMPO 0922/0924 1SM -RA BR BKN007 FM100300 VRB03KT 1 1/2SM BR BKN002 FM100600 00000KT 1/2SM FG VV002 FM101500 VRB03KT 4SM BR SCT006 BKN012
NOTAMs
Click for the latest NOTAMs
NOTAMs are issued by the DoD/FAA and will open in a separate window not controlled by AirNav.

 

 
 

Would you like to see your business listed on this page?

 If your business provides an interesting product or service to pilots, flight crews, aircraft, or users of the Raby Airpark, you should consider listing it here.  To start the listing process, click on the button below
 
Add a business
 

Other Pages about Raby Airpark

Update a link
 
Copyright © AirNav, LLC. All rights reserved. Privacy Policy  Contact